Location: Eschentzwiller
(47.7125°N, 7.3981°E)
Time: 04:32:22
(UTC+00:00)

ERS-2 - Pass Details

Date: 27 October 2020
Orbit: 493 x 497 km, 98.6° (Epoch: 01 December)

Event Time Altitude Azimuth Distance (km) Brightness Sun altitude
Rises 17:52:55 0° 5° (N) 2,589 5.7 -16.1°
Reaches altitude 10° 17:55:10 10° 354° (N) 1,701 4.9 -16.5°
Maximum altitude 17:58:21 29° 293° (WNW) 935 4.2 -17.1°
Drops below altitude 10° 18:01:31 10° 232° (SW) 1,690 5.6 -17.6°
Sets 18:03:45 0° 221° (SW) 2,568 6.4 -18.0°
